User: anonymous   Login
Location: Caltech
(34.1382°N, 118.1253°W)
Time: 17:04:41
(UTC-07:00)
Language:

ITAMSAT 1 - Orbit

View from above orbital plane
View from above orbital plane
View from above satellite
View from above satellite

Ground track
Ground track

The orbit data is extracted from the following two-line orbital elements,

1 22826U 93061D   17082.87985263 +.00000019 +00000-0 +24762-4 0  9990
2 22826 098.7964 047.5514 0008355 205.0430 155.0347 14.30317642225135
Epoch (UTC): 23 March 2017 21:06:59
Eccentricity: 0.0008355
inclination: 98.7964°
perigee height: 784 km
apogee height: 796 km
right ascension of ascending node: 47.5514°
argument of perigee: 205.0430°
revolutions per day: 14.30317642
mean anomaly at epoch: 155.0347°
orbit number at epoch: 22513

The dashed part of the orbit path shows where the satellite is in the earth's shadow,  

DLR